Location: �quirre
(50.4736°N, 2.2351°E)
Time: 17:03:16
(UTC+00:00)

Cosmos 2237 Rocket - Pass Details

Date: 07 August 2020
Orbit: 836 x 848 km, 71.0° (Epoch: 24 September)

Event Time Altitude Azimuth Distance (km) Brightness Sun altitude
Rises 00:47:55 0° 330° (NNW) 3,413 6.1 -22.3°
Reaches altitude 10° 00:50:23 10° 332° (NNW) 2,473 5.3 -22.2°
Maximum altitude 00:56:04 77° 59° (ENE) 866 2.2 -21.9°
Enters shadow 00:59:05 29° 142° (SE) 1,504 3.2 -21.8°
